Back to catalog

STARLINK-32459

AliveCommunicationsVLEO
NORAD 61715·PAYLOAD·🇺🇸 United States

Launched Oct 30, 2024 from Cape Canaveral Space Force Station

Loading…

Next Passes (next 24 hours)

TLE

FreshSource: CelesTrak SupGP

Epoch: Sep 14, 2026, 21:20 UTC

1 61715C 24196J   26257.88937500  .00014476  00000+0  42781-3 0  2577
2 61715  53.1593 299.9732 0001196  91.3801 133.7899 15.34374788    19

Track STARLINK-32459 in real time with AllMySat

Download on the App Store